When you browse on this site, cookies collect data to enhance your experience and personalize the content and advertising you see.
Visit our Privacy Policy to learn more. By continuing to use the site, you agree to this use of cookies and data.
  • In Portugal
  • List of Countries
  • For 7 days
  • Water Temperature
  • Weather Map
  • Weather Widgets
  • user-avatar
    Login

    Hourly Weather Mahilyow

    Today, 4 June, Thursday

    Time Temperature Precipitation Wind Pressure Humidity
    00:00 +9°C° 0 mm 1 mps 739 mmHg 91%
    01:00 +9°C° 0 mm 1 mps 739 mmHg 92%
    02:00 +8°C° 0 mm 1 mps 739 mmHg 92%
    03:00 +9°C° 0 mm 1 mps 739 mmHg 92%
    04:00 +9°C° 0 mm 1 mps 739 mmHg 92%
    05:00 +9°C° 0 mm 1 mps 738 mmHg 92%
    06:00 +11°C° 0 mm 1 mps 738 mmHg 87%
    07:00 +12°C° 0 mm 1 mps 738 mmHg 82%
    08:00 +14°C° 0 mm 1 mps 738 mmHg 77%
    09:00 +15°C° 0.2 mm 2 mps 738 mmHg 73%
    10:00 +16°C° 0.2 mm 3 mps 738 mmHg 69%
    11:00 +16°C° 0.2 mm 3 mps 738 mmHg 65%
    12:00 +17°C° 0.1 mm 4 mps 738 mmHg 63%
    13:00 +17°C° 0.1 mm 4 mps 738 mmHg 61%
    14:00 +18°C° 0.1 mm 4 mps 738 mmHg 58%
    15:00 +18°C° 0.1 mm 4 mps 737 mmHg 61%
    16:00 +17°C° 0.1 mm 4 mps 737 mmHg 63%
    17:00 +17°C° 0.1 mm 4 mps 737 mmHg 65%
    18:00 +16°C° 0.5 mm 3 mps 737 mmHg 72%
    19:00 +13°C° 0.5 mm 3 mps 737 mmHg 80%
    20:00 +11°C° 0.5 mm 3 mps 737 mmHg 87%
    21:00 +11°C° 0.1 mm 3 mps 737 mmHg 89%
    22:00 +10°C° 0.1 mm 2 mps 737 mmHg 91%
    23:00 +9°C° 0.1 mm 2 mps 737 mmHg 93%

    Tomorrow, 5 June, Friday

    Time Temperature Precipitation Wind Pressure Humidity
    00:00 +9°C° 0 mm 2 mps 737 mmHg 94%
    01:00 +9°C° 0 mm 2 mps 737 mmHg 94%
    02:00 +8°C° 0 mm 2 mps 737 mmHg 95%
    03:00 +8°C° 0 mm 2 mps 737 mmHg 96%
    04:00 +9°C° 0 mm 2 mps 737 mmHg 97%
    05:00 +9°C° 0 mm 2 mps 737 mmHg 98%
    06:00 +10°C° 0 mm 2 mps 737 mmHg 92%
    07:00 +13°C° 0 mm 1 mps 738 mmHg 87%
    08:00 +15°C° 0 mm 1 mps 738 mmHg 82%
    09:00 +16°C° 0 mm 2 mps 738 mmHg 75%
    10:00 +17°C° 0 mm 2 mps 738 mmHg 68%
    11:00 +19°C° 0 mm 3 mps 738 mmHg 61%
    12:00 +19°C° 0 mm 3 mps 738 mmHg 61%
    13:00 +20°C° 0 mm 3 mps 738 mmHg 60%
    14:00 +21°C° 0 mm 3 mps 738 mmHg 59%
    15:00 +21°C° 0 mm 3 mps 739 mmHg 62%
    16:00 +21°C° 0 mm 3 mps 739 mmHg 64%
    17:00 +21°C° 0 mm 3 mps 739 mmHg 67%
    18:00 +19°C° 0.1 mm 3 mps 739 mmHg 75%
    19:00 +18°C° 0.1 mm 3 mps 739 mmHg 84%
    20:00 +16°C° 0.1 mm 3 mps 739 mmHg 92%
    21:00 +16°C° 0 mm 3 mps 740 mmHg 93%
    22:00 +16°C° 0 mm 3 mps 740 mmHg 95%
    23:00 +16°C° 0 mm 3 mps 740 mmHg 96%

    Day after tomorrow, 6 June, Saturday

    Time Temperature Precipitation Wind Pressure Humidity
    00:00 +14°C° 0 mm 3 mps 740 mmHg 96%
    01:00 +14°C° 0 mm 3 mps 740 mmHg 96%
    02:00 +14°C° 0 mm 3 mps 740 mmHg 96%
    03:00 +14°C° 0 mm 3 mps 740 mmHg 96%
    04:00 +14°C° 0 mm 3 mps 740 mmHg 96%
    05:00 +14°C° 0 mm 3 mps 740 mmHg 96%
    06:00 +17°C° 0 mm 4 mps 741 mmHg 92%
    07:00 +18°C° 0 mm 4 mps 741 mmHg 87%
    08:00 +20°C° 0 mm 4 mps 741 mmHg 83%
    09:00 +21°C° 0.1 mm 4 mps 742 mmHg 78%
    10:00 +22°C° 0.1 mm 4 mps 742 mmHg 73%
    11:00 +23°C° 0.1 mm 4 mps 742 mmHg 68%
    12:00 +23°C° 0.2 mm 4 mps 742 mmHg 70%
    13:00 +23°C° 0.2 mm 4 mps 743 mmHg 72%
    14:00 +23°C° 0.2 mm 4 mps 743 mmHg 74%
    15:00 +23°C° 0.3 mm 4 mps 743 mmHg 75%
    16:00 +24°C° 0.3 mm 3 mps 743 mmHg 76%
    17:00 +24°C° 0.3 mm 3 mps 743 mmHg 77%
    18:00 +23°C° 0.6 mm 2 mps 743 mmHg 81%
    19:00 +20°C° 0.6 mm 2 mps 743 mmHg 85%
    20:00 +20°C° 0.6 mm 1 mps 743 mmHg 89%
    21:00 +20°C° 1 mm 1 mps 744 mmHg 90%
    22:00 +19°C° 1 mm 1 mps 744 mmHg 92%
    23:00 +18°C° 1 mm 1 mps 745 mmHg 93%

    7 June, Sunday

    Time Temperature Precipitation Wind Pressure Humidity
    00:00 +18°C° 0 mm 1 mps 745 mmHg 93%
    01:00 +16°C° 0 mm 1 mps 745 mmHg 94%
    02:00 +16°C° 0 mm 1 mps 745 mmHg 94%
    03:00 +16°C° 0 mm 1 mps 746 mmHg 94%
    04:00 +16°C° 0 mm 1 mps 746 mmHg 94%
    05:00 +16°C° 0 mm 1 mps 746 mmHg 94%
    06:00 +19°C° 0 mm 1 mps 746 mmHg 90%
    07:00 +20°C° 0 mm 1 mps 747 mmHg 85%
    08:00 +20°C° 0 mm 0 mps 747 mmHg 81%
    09:00 +23°C° 0 mm 1 mps 748 mmHg 76%
    10:00 +24°C° 0 mm 1 mps 748 mmHg 71%
    11:00 +25°C° 0 mm 1 mps 748 mmHg 66%
    12:00 +25°C° 0.1 mm 2 mps 748 mmHg 64%
    13:00 +26°C° 0.1 mm 2 mps 748 mmHg 63%
    14:00 +27°C° 0.1 mm 2 mps 747 mmHg 62%
    15:00 +26°C° 1 mm 2 mps 747 mmHg 68%
    16:00 +26°C° 1 mm 2 mps 747 mmHg 75%
    17:00 +25°C° 1 mm 2 mps 747 mmHg 81%
    18:00 +24°C° 0.1 mm 2 mps 747 mmHg 83%
    19:00 +23°C° 0.1 mm 2 mps 747 mmHg 86%
    20:00 +21°C° 0.1 mm 3 mps 747 mmHg 88%
    21:00 +20°C° 0 mm 3 mps 747 mmHg 90%
    22:00 +19°C° 0 mm 3 mps 747 mmHg 92%
    23:00 +19°C° 0 mm 3 mps 747 mmHg 93%

    8 June, Monday

    Time Temperature Precipitation Wind Pressure Humidity
    00:00 +18°C° 0.2 mm 3 mps 747 mmHg 94%
    01:00 +18°C° 0.2 mm 3 mps 747 mmHg 95%
    02:00 +17°C° 0.2 mm 3 mps 747 mmHg 96%
    03:00 +17°C° 0 mm 3 mps 747 mmHg 96%
    04:00 +17°C° 0 mm 3 mps 747 mmHg 95%
    05:00 +17°C° 0 mm 3 mps 747 mmHg 95%
    06:00 +19°C° 0 mm 3 mps 747 mmHg 91%
    07:00 +20°C° 0 mm 3 mps 747 mmHg 88%
    08:00 +22°C° 0 mm 3 mps 747 mmHg 84%
    09:00 +23°C° 0.2 mm 4 mps 747 mmHg 78%
    10:00 +25°C° 0.2 mm 5 mps 747 mmHg 71%
    11:00 +27°C° 0.2 mm 5 mps 747 mmHg 65%
    12:00 +27°C° 0.1 mm 5 mps 747 mmHg 64%
    13:00 +27°C° 0.1 mm 5 mps 746 mmHg 63%
    14:00 +28°C° 0.1 mm 6 mps 746 mmHg 62%
    15:00 +27°C° 0.1 mm 5 mps 746 mmHg 65%
    16:00 +27°C° 0.1 mm 5 mps 745 mmHg 67%
    17:00 +27°C° 0.1 mm 5 mps 745 mmHg 70%
    18:00 +26°C° 0 mm 4 mps 745 mmHg 75%
    19:00 +23°C° 0 mm 4 mps 745 mmHg 79%
    20:00 +22°C° 0 mm 4 mps 745 mmHg 84%
    21:00 +21°C° 0.1 mm 4 mps 745 mmHg 86%
    22:00 +21°C° 0.1 mm 4 mps 745 mmHg 88%
    23:00 +20°C° 0.1 mm 4 mps 745 mmHg 90%

    9 June, Tuesday

    Time Temperature Precipitation Wind Pressure Humidity
    00:00 +20°C° 0.2 mm 4 mps 745 mmHg 91%
    01:00 +20°C° 0.2 mm 4 mps 745 mmHg 92%
    02:00 +19°C° 0.2 mm 4 mps 745 mmHg 93%
    03:00 +19°C° 0 mm 4 mps 745 mmHg 93%
    04:00 +19°C° 0 mm 4 mps 745 mmHg 94%
    05:00 +19°C° 0 mm 4 mps 745 mmHg 94%
    06:00 +20°C° 0 mm 4 mps 745 mmHg 90%
    07:00 +21°C° 0 mm 4 mps 746 mmHg 86%
    08:00 +23°C° 0 mm 4 mps 746 mmHg 82%
    09:00 +25°C° 0.5 mm 4 mps 746 mmHg 78%
    10:00 +26°C° 0.5 mm 5 mps 746 mmHg 73%
    11:00 +27°C° 0.5 mm 5 mps 746 mmHg 68%
    12:00 +27°C° 0.5 mm 5 mps 746 mmHg 67%
    13:00 +28°C° 0.5 mm 5 mps 746 mmHg 66%
    14:00 +28°C° 0.5 mm 4 mps 746 mmHg 65%
    15:00 +28°C° 0.3 mm 4 mps 746 mmHg 67%
    16:00 +28°C° 0.3 mm 3 mps 746 mmHg 69%
    17:00 +27°C° 0.3 mm 3 mps 746 mmHg 71%
    18:00 +26°C° 0.4 mm 2 mps 746 mmHg 76%
    19:00 +24°C° 0.4 mm 2 mps 746 mmHg 82%
    20:00 +23°C° 0.4 mm 1 mps 746 mmHg 87%
    21:00 +22°C° 0 mm 1 mps 746 mmHg 89%
    22:00 +21°C° 0 mm 1 mps 746 mmHg 90%
    23:00 +20°C° 0 mm 1 mps 746 mmHg 92%
    Show more